Wind_Speed
65 64 67 67 69 68 68 68 68 66 65 67 64 67 72 75 75 73 72 76 77 75 71 67 66 62 65 65 66 77 76 62 66 67 74 79 76 74 71 65 59 62 63 64 67
70 69 69 68 70 71 70 70 72 73 71 68 71 68 71 75 77 73 75 77 81 81 78 69 64 64 59 63 60 63 63 59 66 70 73 73 71 70 64 65 65 62 69 70 73
70 72 72 76 76 74 75 74 77 79 78 75 75 78 81 77 75 73 79 81 81 83 83 80 75 64 63 63 61 59 54 58 62 69 67 64 68 69 66 67 70 69 72 70 63
69 69 70 74 80 81 84 83 80 77 78 81 82 82 85 83 81 78 79 79 84 84 84 80 80 69 63 62 63 58 57 61 64 68 67 65 66 64 67 70 70 65 68 64 67
78 78 78 79 82 87 87 86 82 80 80 81 86 89 89 86 83 86 87 82 80 83 81 83 79 73 67 62 65 61 54 56 57 57 58 60 60 63 66 67 68 63 66 67 67
84 84 84 83 86 91 95 92 88 91 90 92 84 85 80 82 85 88 83 83 82 83 80 80 81 77 68 61 66 62 60 56 60 61 59 57 55 57 61 68 67 68 67 66 65
88 88 89 91 91 90 94 95 96 93 88 89 84 81 82 89 91 90 87 85 77 80 78 79 80 79 74 64 65 62 61 62 65 66 59 59 53 59 64 67 66 70 67 68 57
95 91 97 95 91 84 87 91 90 85 88 96 96 86 88 94 86 83 82 78 72 75 76 78 80 76 71 64 64 64 65 63 65 63 59 56 52 61 61 64 69 74 75 63 51
97 97 93 95 90 90 92 88 91 94 96 102 101 95 88 78 75 73 70 69 69 71 72 78 82 62 69 67 57 63 68 64 65 66 62 62 59 63 63 64 69 76 75 58 45
100 100 100 95 92 96 94 96 97 98 100 108 105 89 77 69 63 62 61 63 68 70 70 73 74 68 67 72 63 61 61 65 66 68 67 63 62 59 63 70 72 72 63 48 37
102 97 96 102 102 102 100 103 105 103 110 103 88 78 71 61 59 58 56 60 65 65 65 64 64 71 73 72 57 62 69 69 65 68 64 66 61 54 62 67 71 64 46 37 32
99 100 101 108 109 106 112 110 108 108 103 86 78 69 60 51 54 52 52 58 63 63 64 64 62 67 70 68 62 58 64 68 68 68 65 61 51 54 61 70 67 46 36 29 29
106 106 106 113 110 112 111 111 109 96 82 82 73 60 54 51 49 51 51 58 62 63 60 59 63 69 72 72 63 65 65 69 65 67 63 57 53 56 63 64 55 33 29 30 28
111 113 116 115 115 116 116 106 101 91 81 79 73 71 58 54 51 48 48 53 60 61 57 54 58 58 65 68 68 67 61 58 59 58 59 57 48 54 62 61 44 33 32 32 36
119 119 118 121 121 117 112 105 98 90 79 76 70 70 69 56 50 49 48 53 59 61 61 59 59 60 60 64 62 61 65 62 56 56 54 56 51 52 60 62 37 37 35 38 42
119 118 122 120 121 121 112 101 95 87 79 69 65 65 64 58 51 48 49 53 59 60 61 64 61 62 65 64 60 59 57 56 58 57 58 57 59 55 60 54 31 38 38 40 43
123 124 126 126 127 117 107 104 93 84 77 68 66 59 54 53 50 49 49 55 60 63 64 65 62 63 63 60 59 61 61 64 65 65 60 57 54 51 51 44 36 42 43 43 41
123 121 120 124 118 109 103 98 86 77 73 67 60 53 46 47 48 47 48 52 60 65 68 69 66 64 65 67 65 64 65 68 72 68 64 61 55 49 45 38 41 45 48 47 43
121 121 121 116 112 105 97 91 83 74 69 60 55 49 49 45 49 47 47 52 56 65 70 71 72 69 69 71 70 70 72 74 74 73 65 57 48 42 42 37 45 49 53 50 46
123 122 117 109 107 98 93 83 76 70 62 55 54 53 51 51 50 49 50 52 57 61 67 72 74 74 73 74 74 72 72 73 72 69 61 44 41 33 45 42 48 54 53 52 49
107 110 108 101 99 94 84 77 71 65 60 57 54 54 51 51 49 49 52 54 58 60 62 66 72 75 75 77 74 71 72 72 68 58 44 33 37 38 45 49 49 58 53 53 52
109 100 101 96 88 80 77 70 65 67 62 55 51 50 51 50 47 47 49 56 57 62 62 63 69 74 76 75 74 75 75 69 63 54 36 33 38 48 47 47 53 57 56 53 55
100 98 92 83 77 74 68 67 66 63 61 56 53 50 51 49 48 48 50 52 56 62 63 60 62 71 75 73 73 74 72 60 53 46 35 34 46 45 44 48 56 57 57 54 53
94 86 78 75 72 65 65 63 62 59 61 55 54 53 51 49 47 49 52 54 56 58 61 61 61 67 72 73 75 74 71 57 44 44 36 44 52 47 48 50 59 57 52 51 53
80 75 74 68 64 61 61 58 59 57 57 50 48 47 46 47 45 47 53 55 56 60 59 60 62 64 63 63 66 70 66 51 41 37 42 47 53 51 50 53 56 58 53 49 50
71 69 66 65 60 58 56 55 54 50 48 44 43 40 40 42 40 46 52 55 58 60 61 58 60 62 57 57 57 59 55 46 40 42 49 52 49 51 51 53 62 62 54 50 51
64 64 63 59 54 56 53 49 47 45 40 39 36 34 33 36 39 43 50 54 58 59 57 60 58 53 53 51 49 52 48 44 45 52 48 56 53 54 53 53 52 63 53 52 53
Wind_Direction
295 298 299 296 299 296 297 294 292 290 290 291 289 287 293 291 289 288 284 282 278 277 277 273 272 274 265 267 265 264 263 266 269 267 269 276 278 275 279 282 282 283 283 283 282
295 296 293 289 292 293 292 293 293 290 290 289 288 289 292 289 286 284 281 279 277 277 276 274 272 271 272 271 271 263 257 266 263 267 269 274 273 277 277 277 278 288 281 281 287
292 293 293 295 292 293 292 293 291 292 290 287 287 286 290 288 281 280 283 281 276 274 273 274 271 266 266 264 268 269 269 266 263 263 267 271 272 270 271 276 276 279 281 284 287
285 291 296 296 293 289 289 290 289 289 290 290 287 287 290 289 281 281 282 281 275 273 269 269 270 263 261 264 265 265 265 261 261 262 265 260 263 269 272 276 278 281 281 285 294
287 288 289 295 296 289 288 288 289 289 290 290 290 291 291 285 284 281 283 279 275 271 267 266 265 264 255 262 263 261 255 257 266 267 266 267 271 275 280 277 278 281 284 294 294
289 286 289 295 298 290 287 285 286 290 289 293 293 289 283 283 289 285 280 278 273 272 268 263 261 263 250 254 257 258 256 261 266 268 268 270 274 278 275 275 280 283 293 296 293
288 289 290 289 294 289 286 286 287 288 288 299 298 290 291 286 287 286 277 276 273 266 265 259 257 258 245 250 256 252 253 259 264 268 271 269 276 276 273 278 283 286 291 298 288
281 285 283 294 292 293 284 284 290 294 294 299 303 295 290 289 286 281 276 274 266 261 257 252 252 247 241 242 252 252 254 258 259 263 266 266 272 272 277 280 287 289 296 296 277
282 286 285 291 293 294 295 295 298 295 295 298 300 299 292 288 283 277 273 269 258 250 247 246 241 239 242 238 247 251 253 261 263 264 263 265 270 274 281 283 288 290 295 289 268
286 291 294 296 294 297 298 297 298 300 299 299 300 295 290 287 280 274 267 259 251 243 243 241 238 235 235 238 239 252 256 257 256 259 260 267 269 275 279 283 287 295 293 277 259
291 293 293 295 296 296 296 297 300 301 301 300 297 293 288 282 277 270 261 251 244 243 244 240 235 238 243 236 245 250 248 250 256 260 264 266 271 276 278 283 290 296 279 263 241
289 291 291 293 295 297 298 299 299 300 301 297 295 292 291 280 277 265 254 246 240 241 244 243 236 239 239 238 242 247 250 256 260 262 264 268 271 279 280 283 290 289 264 244 216
289 290 291 293 294 296 298 300 300 300 301 300 300 296 290 284 278 265 252 242 240 240 242 241 240 238 238 241 242 248 251 254 256 261 264 265 272 279 281 286 294 265 239 219 209
288 289 291 292 294 295 298 298 301 301 303 305 303 299 291 285 281 262 250 243 237 236 236 235 236 236 238 242 244 249 251 253 254 256 263 269 271 276 279 289 290 239 222 209 212
286 290 291 292 293 298 300 300 302 301 302 300 295 292 290 283 273 263 249 240 238 236 235 230 236 233 235 240 242 246 250 251 251 256 264 267 273 273 283 288 272 224 212 211 210
286 287 291 292 295 299 300 300 301 302 302 297 292 286 281 277 269 259 250 243 236 236 235 233 236 240 239 240 245 247 251 252 254 256 262 265 271 279 284 280 245 216 208 216 214
286 287 290 293 295 300 300 301 302 301 299 294 289 282 275 269 263 259 251 240 236 232 233 235 235 238 240 240 245 246 247 251 254 259 260 262 275 280 279 265 226 211 206 213 214
287 288 291 296 296 297 300 300 301 298 295 290 284 278 273 265 260 254 251 246 238 232 232 232 235 237 239 237 242 246 249 252 256 259 263 268 275 270 261 246 215 204 204 210 209
287 290 291 293 296 298 298 300 297 293 290 285 280 274 272 262 259 252 246 245 241 236 232 232 234 236 237 241 245 249 250 253 257 260 263 270 267 264 237 226 206 200 202 209 210
286 290 292 294 297 298 298 296 292 290 286 282 280 277 270 264 255 254 249 244 243 237 235 233 234 234 237 239 244 249 252 255 259 263 267 267 259 237 221 198 200 197 203 209 211
288 291 292 294 296 297 295 292 292 288 285 281 277 273 268 262 255 247 246 243 240 240 237 235 235 237 236 237 240 245 251 254 259 262 264 253 243 217 216 197 204 199 204 209 212
288 290 292 293 294 293 293 292 289 287 283 280 275 271 265 261 255 246 242 240 238 237 237 233 232 235 237 240 243 245 249 253 256 259 256 242 222 209 207 204 202 199 207 210 214
287 289 291 293 292 292 291 291 288 285 284 282 278 271 265 259 252 246 241 239 236 236 235 234 233 234 236 238 240 244 249 250 251 260 249 228 208 207 207 202 199 201 207 211 215
288 289 290 291 292 292 290 288 287 286 284 282 277 270 265 259 249 243 237 234 233 236 235 233 232 232 235 236 239 243 248 249 249 252 231 213 202 202 198 198 199 207 210 213 215
287 288 289 291 290 290 289 289 288 287 284 281 276 269 262 255 245 236 234 231 230 231 233 231 231 233 233 235 237 241 245 246 242 234 212 203 202 201 194 197 201 209 211 214 215
287 289 289 290 291 292 293 291 289 286 284 282 276 267 259 252 243 233 229 228 226 227 228 228 229 230 229 231 232 236 238 232 239 215 204 195 198 199 198 198 203 207 211 218 219
286 287 289 291 294 295 294 292 290 287 284 279 272 266 257 248 240 230 227 227 224 224 226 227 228 227 226 227 226 229 224 215 224 205 202 198 196 200 202 199 206 208 210 218 225
Height
10727 10725 10722 10720 10717 10714 10711 10708 10705 10703 10700 10697 10693 10690 10688 10686 10683 10682 10680 10677 10674 10675 10671 10671 10670 10669 10670 10671 10673 10675 10681 10685 10683 10678 10673 10668 10676 10679 10682 10683 10685 10686 10685 10685 10682
10715 10712 10710 10708 10705 10702 10697 10695 10691 10688 10684 10680 10677 10674 10672 10671 10669 10666 10664 10661 10657 10658 10656 10656 10656 10656 10656 10656 10659 10661 10667 10668 10663 10662 10660 10663 10663 10664 10669 10669 10670 10673 10671 10669 10668
10701 10699 10696 10694 10691 10687 10684 10681 10678 10674 10670 10666 10662 10659 10655 10653 10649 10647 10644 10641 10640 10638 10640 10641 10641 10642 10644 10643 10645 10648 10655 10651 10650 10646 10648 10653 10651 10652 10655 10657 10654 10658 10656 10654 10656
10686 10684 10682 10680 10676 10671 10667 10666 10662 10660 10655 10651 10647 10642 10638 10633 10629 10629 10624 10620 10619 10618 10621 10623 10624 10626 10629 10631 10630 10638 10637 10633 10637 10634 10639 10640 10638 10641 10643 10642 10636 10641 10643 10643 10639
10670 10669 10667 10663 10660 10653 10649 10648 10645 10643 10639 10635 10630 10624 10617 10609 10605 10607 10602 10597 10595 10596 10599 10604 10606 10610 10614 10617 10617 10624 10620 10622 10624 10625 10625 10627 10629 10628 10633 10622 10615 10627 10630 10626 10622
10654 10651 10648 10645 10640 10635 10633 10630 10628 10625 10619 10616 10609 10603 10596 10583 10583 10577 10575 10574 10573 10572 10579 10583 10585 10593 10597 10600 10602 10606 10611 10608 10611 10609 10611 10616 10617 10620 10607 10601 10605 10611 10614 10611 10605
10634 10633 10629 10628 10623 10617 10615 10613 10610 10605 10599 10592 10587 10582 10574 10560 10558 10551 10548 10548 10549 10549 10555 10560 10566 10572 10580 10580 10588 10590 10596 10598 10594 10594 10602 10602 10611 10602 10594 10589 10592 10591 10593 10591 10586
10615 10614 10610 10608 10601 10595 10594 10593 10587 10580 10574 10568 10563 10560 10549 10539 10531 10526 10521 10522 10525 10526 10531 10540 10546 10553 10562 10564 10571 10577 10581 10581 10579 10582 10587 10591 10599 10580 10582 10581 10580 10572 10572 10571 10569
10591 10590 10589 10587 10576 10570 10567 10566 10563 10557 10549 10543 10539 10533 10524 10514 10507 10503 10498 10498 10502 10504 10510 10519 10526 10533 10544 10545 10554 10562 10565 10569 10567 10568 10571 10578 10582 10569 10568 10571 10568 10558 10557 10553 10553
10562 10564 10561 10555 10550 10545 10543 10543 10541 10534 10524 10515 10511 10506 10499 10492 10485 10480 10479 10479 10483 10487 10492 10500 10511 10517 10521 10524 10538 10544 10553 10552 10552 10548 10557 10564 10568 10563 10554 10557 10553 10547 10542 10538 10539
10536 10535 10533 10530 10527 10523 10521 10520 10517 10511 10496 10488 10485 10478 10476 10472 10465 10459 10460 10462 10466 10471 10477 10484 10495 10500 10501 10511 10524 10528 10532 10534 10535 10538 10543 10548 10555 10551 10544 10543 10539 10533 10529 10527 10529
10511 10512 10512 10508 10504 10501 10495 10492 10490 10491 10472 10464 10462 10457 10450 10450 10444 10443 10444 10446 10450 10455 10462 10470 10479 10483 10491 10497 10506 10511 10515 10518 10523 10524 10531 10532 10540 10539 10533 10530 10526 10521 10517 10518 10523
10489 10490 10490 10484 10480 10478 10475 10469 10464 10460 10455 10437 10432 10433 10431 10429 10425 10424 10427 10430 10434 10440 10446 10457 10463 10468 10476 10483 10490 10497 10500 10504 10511 10511 10514 10521 10529 10522 10520 10516 10511 10509 10508 10512 10515
10467 10466 10466 10460 10455 10452 10451 10444 10437 10433 10431 10417 10410 10401 10411 10410 10407 10407 10411 10415 10419 10424 10433 10442 10447 10454 10462 10467 10476 10481 10486 10491 10495 10499 10501 10507 10518 10511 10505 10503 10500 10500 10501 10505 10512
10443 10444 10441 10435 10428 10428 10424 10417 10413 10410 10411 10404 10396 10388 10383 10390 10392 10392 10395 10401 10405 10411 10419 10427 10432 10439 10446 10451 10463 10465 10471 10477 10482 10486 10492 10492 10498 10501 10492 10490 10491 10491 10494 10499 10507
10423 10421 10417 10411 10405 10404 10399 10393 10392 10388 10384 10381 10378 10371 10367 10369 10371 10375 10380 10384 10392 10398 10403 10410 10419 10426 10431 10438 10445 10450 10456 10462 10467 10474 10479 10478 10484 10491 10480 10478 10487 10488 10492 10500 10507
10402 10399 10395 10389 10383 10378 10372 10369 10370 10365 10361 10361 10354 10352 10353 10351 10353 10358 10363 10367 10373 10380 10387 10394 10403 10410 10416 10423 10430 10437 10442 10447 10452 10458 10464 10467 10474 10476 10469 10471 10478 10482 10487 10497 10505
10380 10377 10372 10368 10361 10355 10352 10349 10344 10345 10339 10336 10334 10334 10338 10337 10337 10342 10345 10349 10355 10362 10370 10378 10385 10394 10401 10408 10414 10419 10427 10431 10438 10444 10450 10454 10463 10462 10459 10463 10471 10474 10484 10492 10500
10358 10356 10352 10346 10340 10334 10331 10326 10321 10320 10319 10315 10312 10316 10317 10322 10319 10324 10328 10331 10338 10344 10351 10361 10368 10377 10385 10392 10398 10404 10412 10417 10423 10429 10437 10444 10446 10450 10450 10457 10463 10468 10476 10485 10493
10337 10335 10328 10321 10316 10313 10309 10302 10297 10296 10295 10296 10294 10295 10299 10299 10305 10308 10310 10316 10319 10325 10333 10343 10350 10360 10368 10376 10382 10390 10397 10403 10408 10416 10422 10430 10432 10437 10439 10447 10455 10462 10471 10480 10487
10314 10313 10306 10301 10298 10293 10287 10281 10275 10272 10274 10275 10274 10272 10276 10279 10285 10289 10291 10296 10301 10307 10316 10327 10336 10342 10351 10356 10368 10376 10381 10387 10394 10402 10409 10414 10417 10426 10430 10440 10448 10456 10465 10474 10480
10294 10290 10286 10282 10279 10273 10266 10261 10257 10249 10251 10252 10252 10253 10255 10258 10265 10269 10273 10274 10284 10288 10296 10306 10316 10324 10331 10343 10354 10361 10367 10374 10381 10389 10397 10401 10408 10413 10419 10429 10438 10448 10458 10466 10473
10273 10269 10266 10263 10258 10254 10248 10241 10235 10231 10227 10229 10230 10234 10234 10240 10246 10251 10255 10260 10264 10268 10277 10289 10301 10306 10315 10326 10338 10345 10352 10360 10368 10376 10384 10391 10398 10407 10416 10423 10432 10440 10449 10457 10467
10252 10250 10246 10244 10239 10236 10229 10225 10216 10214 10206 10210 10210 10211 10216 10220 10225 10231 10235 10241 10247 10252 10260 10272 10281 10289 10295 10309 10321 10330 10338 10348 10355 10362 10370 10381 10390 10397 10404 10415 10425 10434 10443 10450 10459
10234 10230 10227 10225 10223 10219 10211 10207 10199 10195 10189 10192 10189 10192 10196 10198 10205 10211 10214 10224 10231 10236 10244 10255 10265 10272 10281 10294 10306 10317 10325 10335 10342 10350 10361 10373 10382 10390 10398 10406 10415 10425 10435 10442 10450
10215 10211 10209 10207 10206 10199 10195 10189 10182 10178 10175 10175 10172 10175 10178 10181 10188 10192 10196 10205 10213 10220 10226 10238 10247 10255 10269 10280 10292 10303 10313 10322 10330 10341 10351 10365 10374 10384 10392 10399 10405 10414 10424 10432 10440
10199 10195 10192 10190 10189 10182 10178 10173 10168 10164 10163 10159 10158 10159 10162 10166 10171 10176 10182 10189 10196 10205 10215 10222 10232 10246 10258 10269 10281 10290 10299 10310 10319 10331 10343 10355 10366 10373 10382 10392 10400 10407 10414 10422 10430